HULIANWANG DIGUI-33

导读 | 豆包AI

HULIANWANG DIGUI-33是中国于2025年6月5日发射的低轨互联网卫星,属于中国加速布局低轨卫星互联网星座布局的组成部分。该卫星运行于近地轨道,旨在依托低轨信号损耗小的优势,为全球提供高速稳定的卫星互联网通信服务,弥补地面网络覆盖盲区,支撑天地一体化网络建设,助力中国低轨卫星星座组网进程,推动卫星互联网商用发展。

Basic Information
目录编号:
64286
目录名称:
HULIANWANG DIGUI-33
国际标识:
2025-121D
轨道中心:
EARTH
卫星名称:
HULIANWANG DIGUI-33
卫星全名:
HULIANWANG DIGUI-33
卫星状态:
在轨 (已飞行329 天)
发射日期:
2025-06-05 UTC
国别 :
中国 (CN)
星等 :
--
Orbit Information
数据来源 国际轨道数据 AOE轨道数据
星历时间 2026-04-30T12:07:53+0800
8小时前
查看轨道信息
2026-04-29T00:00:00+0800
1天前
查看轨道信息
半长轴 7546.077km 7546.079km
偏心率 0.0001577 0.0002174
轨道倾角 86.505° 86.501°
近地点辐角 76.432° 91.369°
升交点赤经 29.803° 30.309°
平近点角 283.699° 294.971°
近地点 1166.749km 1166.301km
远地点 1169.131km 1169.583km
周期 108.728分钟 108.728分钟
每日圈数 13.244054 13.244048
Detailed Information
使用方式:
暂无
2D Orbit Map
3D Orbit Map
Orbit Altitude Analysis Chart
Orbit Inclination Analysis Chart
Orbit Comprehensive Analysis Chart
View Comprehensive Chart